TimePST,TemperatureF,Dew PointF,Humidity,Sea Level PressureIn,VisibilityMPH,Wind Direction,Wind SpeedMPH,Gust SpeedMPH,PrecipitationIn,Events,Conditions,WindDirDegrees,DateUTC
12:53 AM,45.0,43.0,93,30.17,10.0,Calm,Calm,-,N/A,,Overcast,0,2013-11-09 08:53:00
1:53 AM,45.0,42.1,90,30.17,10.0,Calm,Calm,-,N/A,,Overcast,0,2013-11-09 09:53:00
2:21 AM,44.6,42.8,93,30.15,10.0,Calm,Calm,-,N/A,,Overcast,0,2013-11-09 10:21:00
2:53 AM,45.0,42.1,90,30.18,10.0,Calm,Calm,-,N/A,,Overcast,0,2013-11-09 10:53:00
3:27 AM,44.6,42.8,93,30.14,10.0,Calm,Calm,-,N/A,,Overcast,0,2013-11-09 11:27:00
3:46 AM,44.6,41.0,87,30.14,10.0,Calm,Calm,-,N/A,,Overcast,0,2013-11-09 11:46:00
3:53 AM,44.1,41.0,89,30.17,10.0,WNW,3.5,-,N/A,,Overcast,290,2013-11-09 11:53:00
4:53 AM,42.1,41.0,96,30.17,9.0,Calm,Calm,-,N/A,,Overcast,0,2013-11-09 12:53:00
5:18 AM,39.2,39.2,100,30.13,2.0,NNE,3.5,-,N/A,,Scattered Clouds,20,2013-11-09 13:18:00
5:39 AM,41.0,39.2,93,30.12,7.0,Calm,Calm,-,N/A,,Clear,0,2013-11-09 13:39:00
5:53 AM,39.9,37.9,93,30.15,2.5,Calm,Calm,-,N/A,,Clear,0,2013-11-09 13:53:00
6:01 AM,39.2,37.4,93,30.13,1.0,Calm,Calm,-,N/A,,Clear,0,2013-11-09 14:01:00
6:07 AM,37.4,35.6,93,30.13,3.0,North,3.5,-,N/A,,Clear,350,2013-11-09 14:07:00
6:53 AM,39.0,36.0,89,30.15,10.0,Calm,Calm,-,N/A,,Clear,0,2013-11-09 14:53:00
7:53 AM,37.9,36.0,93,30.15,10.0,Calm,Calm,-,N/A,,Clear,0,2013-11-09 15:53:00
8:53 AM,42.1,39.0,89,30.14,10.0,Calm,Calm,-,N/A,,Clear,0,2013-11-09 16:53:00
9:53 AM,44.1,39.9,85,30.14,10.0,Calm,Calm,-,N/A,,Clear,0,2013-11-09 17:53:00
10:53 AM,45.0,39.9,82,30.14,10.0,NNE,4.6,-,N/A,,Overcast,30,2013-11-09 18:53:00
11:53 AM,46.9,39.9,77,30.14,10.0,Calm,Calm,-,N/A,,Overcast,0,2013-11-09 19:53:00
12:53 PM,48.0,39.9,74,30.13,10.0,Calm,Calm,-,N/A,,Overcast,0,2013-11-09 20:53:00
1:53 PM,48.0,39.9,74,30.12,10.0,NNE,5.8,-,N/A,,Overcast,20,2013-11-09 21:53:00
2:53 PM,48.0,39.9,74,30.13,10.0,NNW,5.8,-,N/A,,Overcast,330,2013-11-09 22:53:00
3:53 PM,48.0,39.9,74,30.12,10.0,North,4.6,-,N/A,,Overcast,10,2013-11-09 23:53:00
4:53 PM,46.9,39.9,77,30.14,10.0,Calm,Calm,-,N/A,,Overcast,0,2013-11-10 00:53:00
5:53 PM,46.0,41.0,83,30.14,10.0,North,3.5,-,N/A,,Overcast,10,2013-11-10 01:53:00
6:53 PM,46.0,41.0,83,30.14,10.0,Calm,Calm,-,N/A,,Overcast,0,2013-11-10 02:53:00
7:53 PM,45.0,41.0,86,30.15,10.0,Calm,Calm,-,N/A,,Overcast,0,2013-11-10 03:53:00
8:53 PM,44.1,39.9,85,30.15,10.0,Calm,Calm,-,N/A,,Mostly Cloudy,0,2013-11-10 04:53:00
9:53 PM,42.1,39.9,92,30.15,10.0,Calm,Calm,-,N/A,,Clear,0,2013-11-10 05:53:00
10:53 PM,43.0,39.9,89,30.15,10.0,Calm,Calm,-,N/A,,Overcast,0,2013-11-10 06:53:00
11:53 PM,43.0,39.9,89,30.16,10.0,Calm,Calm,-,N/A,,Overcast,0,2013-11-10 07:53:00